K2NV Weather Reports


Display with metric or nautical units.
time (UTC)temp
F
wind
direction
speed
MPH
gust
MPH
rain 1hr
in
rain 24hr
in
rain mn
in
humidity
%
barometer
mb
20260831144839 68 70 1.0 1.0 0.27 0.57 0.43 96 1016.1
20260831143339 67 149 1.0 2.0 0.27 0.55 0.41 96 1016.1
20260831142839 67 125 1.0 2.0 0.27 0.55 0.41 96 1016.1
20260831140339 67 121 1.0 2.0 0.22 0.49 0.35 96 1016.3
20260831135840 67 199 2.0 3.0 0.16 0.43 0.29 96 1016.4
20260831130839 67 89 1.0 2.0 0.03 0.27 0.13 96 1016.5
20260831124839 67 198 0.0 2.0 0.01 0.25 0.11 96 1016.4
20260831123341 66 198 1.0 2.0 0.01 0.25 0.11 96 1016.2
20260831122840 66 198 0.0 0.0 0.00 0.24 0.10 96 1016.2
20260831121840 66 198 1.0 2.0 0.00 0.24 0.10 96 1016.1
20260831121341 66 198 0.0 1.0 0.00 0.24 0.10 96 1016.2
20260831115839 66 218 0.0 1.0 0.00 0.24 0.10 95 1016.4
20260831115340 66 169 1.0 2.0 0.00 0.24 0.10 95 1016.3
20260831114839 66 175 1.0 2.0 0.00 0.24 0.10 95 1016.3
20260831114340 66 187 1.0 2.0 0.00 0.24 0.10 95 1016.4
20260831113838 66 182 2.0 3.0 0.00 0.24 0.10 95 1016.4
20260831112840 66 78 0.0 1.0 0.01 0.24 0.10 95 1016.4
20260831111339 66 70 1.0 3.0 0.02 0.24 0.10 95 1016.2
20260831110339 66 45 0.0 1.0 0.02 0.24 0.10 95 1016.3
20260831105839 66 45 1.0 2.0 0.02 0.24 0.10 95 1016.4
20260831105340 66 119 0.0 2.0 0.02 0.24 0.10 95 1016.4
20260831104339 66 56 0.0 2.0 0.03 0.24 0.10 95 1016.5
20260831103839 66 106 0.0 1.0 0.03 0.24 0.10 95 1016.5
20260831102840 66 106 0.0 1.0 0.02 0.23 0.09 95 1016.5
20260831102339 66 106 0.0 1.0 0.02 0.23 0.09 95 1016.6
20260831101840 66 106 0.0 1.0 0.02 0.23 0.09 95 1016.6
20260831101340 67 72 0.0 1.0 0.01 0.22 0.08 95 1016.6
20260831100839 67 100 0.0 2.0 0.01 0.22 0.08 95 1016.7
20260831095841 67 112 0.0 0.0 0.01 0.22 0.08 95 1016.7
20260831095339 67 112 0.0 0.0 0.01 0.22 0.08 95 1016.7
20260831094341 67 112 0.0 1.0 0.00 0.21 0.07 95 1016.7
20260831093841 67 112 0.0 1.0 0.00 0.21 0.07 95 1016.6
20260831093339 67 112 0.0 1.0 0.00 0.21 0.07 95 1016.6
20260831092838 67 112 0.0 0.0 0.00 0.21 0.07 95 1016.6
20260831092340 67 112 0.0 1.0 0.00 0.21 0.07 95 1016.5
20260831091839 67 112 0.0 0.0 0.00 0.21 0.07 95 1016.4
20260831091340 67 112 0.0 0.0 0.00 0.21 0.07 95 1016.5
20260831090838 67 112 0.0 1.0 0.00 0.21 0.07 95 1016.5
20260831090341 67 112 0.0 1.0 0.00 0.21 0.07 95 1016.6
20260831085839 67 112 0.0 1.0 0.00 0.21 0.07 95 1016.7
20260831083838 67 191 0.0 1.0 0.00 0.21 0.07 95 1016.8
20260831082840 67 201 1.0 1.0 0.00 0.21 0.07 95 1016.8
20260831081340 67 205 1.0 1.0 0.01 0.21 0.07 95 1017.0
20260831080339 67 157 1.0 1.0 0.02 0.21 0.07 95 1017.0
20260831075841 67 172 1.0 2.0 0.02 0.21 0.07 95 1017.0
20260831074839 67 197 1.0 2.0 0.04 0.21 0.07 95 1017.0
20260831074341 67 207 2.0 3.0 0.05 0.21 0.07 95 1017.2
20260831072840 67 184 2.0 3.0 0.06 0.21 0.07 95 1017.4
20260831072339 67 210 2.0 3.0 0.06 0.21 0.07 95 1017.5
20260831071341 67 220 2.0 5.0 0.05 0.20 0.06 95 1017.5
20260831070841 67 205 1.0 3.0 0.05 0.20 0.06 95 1017.4
20260831070339 67 201 2.0 3.0 0.04 0.19 0.05 95 1017.4
20260831065339 67 230 2.0 3.0 0.02 0.17 0.03 95 1017.5
20260831064839 67 197 2.0 3.0 0.02 0.17 0.03 95 1017.4
20260831064342 67 203 1.0 1.0 0.01 0.16 0.02 95 1017.5
20260831063839 67 208 1.0 3.0 0.01 0.16 0.02 95 1017.5
20260831063341 67 219 2.0 5.0 0.00 0.15 0.01 95 1017.6
20260831062337 67 215 2.0 3.0 0.00 0.15 0.01 95 1017.6
20260831055339 67 222 3.0 7.0 0.00 0.15 0.01 95 1017.9
20260831053839 67 220 0.0 0.0 0.00 0.15 0.01 95 1018.0
20260831053340 67 126 0.0 0.0 0.00 0.15 0.01 95 1017.8
20260831052839 67 93 0.0 0.0 0.00 0.15 0.01 95 1017.8
20260831052343 67 193 0.0 0.0 0.00 0.15 0.01 95 1017.7
20260831051842 67 193 0.0 0.0 0.00 0.15 0.01 95 1017.7
20260831051341 67 193 0.0 0.0 0.00 0.15 0.01 95 1017.7
20260831050841 67 193 0.0 0.0 0.01 0.15 0.01 95 1017.7
20260831050341 67 193 0.0 0.0 0.01 0.15 0.01 95 1017.8
20260831044839 67 193 0.0 0.0 0.00 0.15 0.01 95 1017.8
20260831043838 67 193 0.0 0.0 0.00 0.15 0.01 95 1017.8
20260831043342 67 193 0.0 0.0 0.00 0.15 0.01 95 1017.8
20260831042840 67 193 1.0 3.0 0.00 0.15 0.01 95 1017.8
20260831041339 67 195 1.0 2.0 0.00 0.15 0.01 95 1017.7
20260831040840 67 172 0.0 2.0 0.00 0.14 0.00 95 1017.7
20260831040340 67 220 1.0 1.0 0.00 0.14 0.00 94 1017.8
20260831035840 67 220 0.0 0.0 0.01 0.14 0.14 94 1017.6
20260831034841 67 220 1.0 1.0 0.02 0.14 0.14 94 1017.7
20260831033841 67 253 1.0 2.0 0.02 0.14 0.14 95 1017.9
20260831032838 67 231 2.0 3.0 0.02 0.14 0.14 94 1017.9
20260831031840 67 202 2.0 3.0 0.01 0.13 0.13 94 1018.0
20260831014840 66 208 2.0 3.0 0.01 0.07 0.07 94 1018.3
20260831012839 66 241 0.0 2.0 0.00 0.06 0.06 94 1018.4
20260831010839 65 165 2.0 2.0 0.00 0.06 0.06 93 1018.1
20260831005339 65 208 0.0 1.0 0.00 0.06 0.06 93 1018.0
20260831003839 65 194 1.0 1.0 0.00 0.06 0.06 93 1017.8
20260831003340 65 193 0.0 2.0 0.00 0.06 0.06 93 1017.8
20260831002840 65 200 0.0 0.0 0.00 0.06 0.06 93 1017.7
20260831002339 65 200 0.0 0.0 0.00 0.06 0.06 93 1017.7
20260831001839 65 200 0.0 0.0 0.00 0.06 0.06 93 1017.7
20260831001340 65 200 0.0 0.0 0.00 0.06 0.06 93 1017.7
20260831000839 65 200 0.0 0.0 0.00 0.06 0.06 93 1017.7
20260830235839 65 200 0.0 0.0 0.00 0.06 0.06 93 1017.6
20260830235339 65 200 0.0 0.0 0.00 0.06 0.06 93 1017.6
20260830234339 66 200 0.0 0.0 0.00 0.06 0.06 92 1017.5
20260830233339 66 200 0.0 0.0 0.00 0.06 0.06 92 1017.5
20260830231339 66 200 0.0 0.0 0.01 0.06 0.06 92 1017.5
20260830230839 66 200 0.0 0.0 0.01 0.06 0.06 92 1017.4
20260830225839 66 200 0.0 0.0 0.01 0.06 0.06 91 1017.4
20260830224839 66 200 0.0 0.0 0.01 0.06 0.06 91 1017.6
20260830224344 66 200 0.0 0.0 0.02 0.06 0.06 91 1017.6
20260830221340 66 200 0.0 0.0 0.01 0.05 0.05 90 1017.7
20260830220839 66 206 0.0 0.0 0.01 0.05 0.05 90 1017.7
20260830213838 66 223 2.0 3.0 0.00 0.04 0.04 88 1017.7
20260830213340 66 274 1.0 2.0 0.00 0.04 0.04 88 1017.7
20260830212838 67 256 2.0 5.0 0.00 0.04 0.04 88 1017.7
20260830211839 67 288 1.0 2.0 0.00 0.04 0.04 88 1017.5
20260830211339 67 257 1.0 3.0 0.00 0.04 0.04 88 1017.5
20260830210340 67 273 1.0 3.0 0.00 0.04 0.04 88 1017.6
20260830205340 67 271 2.0 5.0 0.00 0.04 0.04 88 1017.6
20260830204839 67 268 2.0 3.0 0.00 0.04 0.04 87 1017.6
20260830203840 67 279 3.0 5.0 0.00 0.04 0.04 88 1017.7
20260830203339 67 266 2.0 3.0 0.00 0.04 0.04 87 1017.7
20260830202339 67 253 2.0 3.0 0.00 0.04 0.04 87 1017.8
20260830201840 67 254 2.0 3.0 0.00 0.04 0.04 87 1017.8
20260830200839 66 264 1.0 1.0 0.00 0.04 0.04 87 1017.8
20260830200341 66 272 1.0 2.0 0.00 0.04 0.04 88 1017.9
20260830195839 66 301 2.0 3.0 0.00 0.04 0.04 88 1017.9
20260830194839 67 327 1.0 2.0 0.00 0.04 0.04 89 1017.9
20260830194340 67 333 2.0 3.0 0.00 0.04 0.04 90 1017.9
20260830193340 67 282 0.0 1.0 0.00 0.04 0.04 90 1018.1
20260830192839 67 272 2.0 3.0 0.00 0.04 0.04 90 1018.1
20260830190339 67 312 1.0 3.0 0.01 0.04 0.04 89 1018.3
20260830185840 67 290 1.0 3.0 0.02 0.04 0.04 89 1018.2
20260830184840 67 292 2.0 3.0 0.03 0.04 0.04 89 1018.3
20260830184341 67 311 3.0 3.0 0.03 0.04 0.04 89 1018.2
20260830183839 67 282 3.0 5.0 0.03 0.04 0.04 90 1018.3
20260830182839 67 283 2.0 3.0 0.03 0.04 0.04 89 1018.3
20260830181339 67 255 3.0 5.0 0.03 0.04 0.04 88 1018.6
20260830180839 67 259 7.0 8.0 0.02 0.03 0.03 86 1018.7
20260830175839 68 267 3.0 5.0 0.01 0.02 0.02 87 1018.8
20260830172838 69 250 3.0 6.0 0.00 0.01 0.01 88 1018.6
20260830172339 69 243 2.0 3.0 0.00 0.01 0.01 88 1018.4
20260830171339 69 263 2.0 5.0 0.00 0.01 0.01 88 1018.3
20260830164341 69 194 0.0 0.0 0.00 0.01 0.01 90 1018.2
20260830163840 69 234 1.0 2.0 0.00 0.01 0.01 90 1018.2
20260830163340 69 249 0.0 3.0 0.00 0.01 0.01 90 1018.2
20260830162839 69 240 2.0 3.0 0.00 0.01 0.01 90 1018.2
20260830162339 69 179 2.0 3.0 0.00 0.01 0.01 91 1018.2
20260830161840 68 288 1.0 1.0 0.00 0.01 0.01 91 1018.2
20260830161340 68 300 0.0 0.0 0.00 0.01 0.01 91 1018.1
20260830160839 68 300 0.0 1.0 0.00 0.01 0.01 91 1018.3
20260830160339 68 261 1.0 2.0 0.00 0.01 0.01 92 1018.3
20260830155839 68 286 1.0 2.0 0.00 0.01 0.01 91 1018.4
20260830155340 67 356 1.0 1.0 0.00 0.01 0.01 91 1018.2
20260830154840 67 356 0.0 1.0 0.01 0.01 0.01 91 1018.3
20260830154339 67 356 1.0 2.0 0.01 0.01 0.01 91 1018.4
20260830152839 67 329 1.0 1.0 0.01 0.01 0.01 91 1018.6
20260830151840 67 272 1.0 3.0 0.01 0.01 0.01 90 1018.7
20260830151339 67 307 1.0 2.0 0.01 0.01 0.01 90 1018.7
20260830150840 67 298 2.0 3.0 0.01 0.01 0.01 90 1018.6